INTELSAT 10-02

Last updated on June 27, 2019, 3:44 a.m. UTC

1 28358U 04022A   19177.78267983 -.00000004  00000-0  00000+0 0  9993
2 28358   0.0166 320.6948 0002762 149.0709  85.6162  1.00269551 55085
UTC
Height (km)
Latitude
Longitude
Inclination
Orbital Period
UTC large
Height (km)
Speed (km/s)
/
Latitude / Longitude
Inclination (degrees)
Orbital Period (minutes)
Azimuth
Elevation
Range (km)
Doppler Factor
iOS Compass Heading
iOS Angle

Next 30 passes for location: Hong Kong

Rise time Rise Azimuth (degrees) Set time Set Azimuth (degrees) Duration Max altitude (degrees)

No matching passes for this satellites